Montpelier, VT

1:27 AM EST on November 20, 2019 (GMT -0500)
Knapp State

Weather History for KMPV - September, 2019

Change the Weather History Date:

Wednesday, September 11, 2019

  Actual Average Record
Temperature  
Mean Temperature 70 °F 59 °F  
Max Temperature 80 °F 71 °F 88 °F (2013)
Min Temperature 61 °F 48 °F 30 °F (1967)
Degree Days  
Heating Degree Days 0 6  
Month to date heating degree days 56  
Since 1 July heating degree days 164  
Cooling Degree Days 4 1  
Month to date cooling degree days 11  
Year to date cooling degree days 255  
Growing Degree Days 20 (Base 50)    
Moisture  
Dew Point 63 °F    
Average Humidity 85    
Maximum Humidity 100    
Minimum Humidity 64    
Precipitation  
Precipitation 0.09 in 0.10 in 1.28 in (1968)
Month to date precipitation 1.01  
Year to date precipitation 25.81  
Sea Level Pressure  
Sea Level Pressure 30.09 in    
Wind  
Wind Speed 5 mph ()    
Max Wind Speed 12 mph    
Max Gust Speed 17 mph    
Visibility 9.4 miles    
Events Rain , Thunderstorm    
T = Trace of Precipitation, MM = Missing Value Source: Averaged Metar Reports

Daily Weather History Graph

Daily Weather History Graph

Search for Another Location

Airport or City:

Astronomy

Sep. 11, 2019 Rise Set
Actual Time 6:24 AM EDT 7:08 PM EDT
Civil Twilight 5:55 AM EDT 7:37 PM EDT
Nautical Twilight 5:20 AM EDT 8:12 PM EDT
Astronomical Twilight 4:44 AM EDT 8:48 PM EDT
Moon 6:26 PM EDT (9/11) 3:36 AM EDT (9/11)
Length of Visible Light 13h 42m
Length of Day
12h 44m
Waxing Gibbous, 94% of the Moon is Illuminated
Sep 11
Waxing Gibbous
Sep 14
Full
Sep 21
Last Quarter
Sep 28
New
Oct 5
First Quarter

Hourly Weather History & Observations

Time (EDT) Temp. Dew Point Humidity Pressure Visibility Wind Dir Wind Speed Gust Speed Precip Events Conditions
12:51 AM 63.0 °F 62.1 °F 97% 30.16 in 10.0 mi SSE 4.6 mph - 0.00 in   Mostly Cloudy
1:51 AM 61.0 °F 61.0 °F 100% 30.14 in 8.0 mi Calm Calm - N/A   Partly Cloudy
2:20 AM 61.0 °F 61.0 °F 100% 30.13 in 2.0 mi Calm Calm - N/A   Clear
2:30 AM 62.1 °F 61.0 °F 96% 30.12 in 5.0 mi Calm Calm - N/A   Clear
2:51 AM 64.0 °F 62.1 °F 93% 30.11 in 10.0 mi Calm Calm - N/A   Clear
3:51 AM 66.0 °F 63.0 °F 90% 30.11 in 10.0 mi SSE 9.2 mph - N/A   Scattered Clouds
4:51 AM 66.0 °F 63.0 °F 90% 30.11 in 10.0 mi Variable 5.8 mph - 0.00 in Rain Light Rain
5:16 AM 68.0 °F 64.0 °F 87% 30.11 in 8.0 mi SW 9.2 mph - 0.02 in Rain , Thunderstorm Light Rain
5:31 AM 66.9 °F 64.0 °F 90% 30.11 in 8.0 mi SW 9.2 mph 17.3 mph 0.05 in Rain Light Rain
5:51 AM 68.0 °F 64.0 °F 87% 30.10 in 10.0 mi SW 11.5 mph 16.1 mph 0.06 in Rain Light Rain
6:51 AM 68.0 °F 64.0 °F 87% 30.10 in 10.0 mi Variable 3.5 mph - 0.00 in   Overcast
7:51 AM 68.0 °F 64.0 °F 87% 30.09 in 10.0 mi SW 8.1 mph - N/A   Overcast
8:32 AM 70.0 °F 64.9 °F 84% 30.10 in 10.0 mi SW 10.4 mph - N/A   Overcast
8:51 AM 70.0 °F 64.0 °F 81% 30.09 in 10.0 mi SW 9.2 mph - N/A   Overcast
9:51 AM 71.1 °F 64.9 °F 81% 30.09 in 10.0 mi North - - N/A   Overcast
10:51 AM 73.0 °F 66.0 °F 79% 30.07 in 10.0 mi Variable 4.6 mph - N/A   Mostly Cloudy
11:51 AM 73.9 °F 66.0 °F 76% 30.06 in 10.0 mi Variable 5.8 mph - N/A   Mostly Cloudy
12:31 PM 75.0 °F 66.0 °F 73% 30.06 in 10.0 mi Variable 6.9 mph - N/A   Overcast
12:51 PM 77.0 °F 66.9 °F 71% 30.05 in 10.0 mi WSW 8.1 mph - N/A   Mostly Cloudy
1:51 PM 75.0 °F 66.0 °F 73% 30.04 in 10.0 mi WNW 8.1 mph - N/A   Mostly Cloudy
2:51 PM 78.1 °F 64.9 °F 64% 30.03 in 10.0 mi WNW 8.1 mph 17.3 mph N/A   Partly Cloudy
3:51 PM 71.1 °F 68.0 °F 90% 30.04 in 10.0 mi NW 10.4 mph - 0.03 in Rain Light Rain
4:51 PM 73.9 °F 69.1 °F 85% 30.04 in 10.0 mi West 5.8 mph - 0.00 in   Scattered Clouds
5:51 PM 73.0 °F 66.9 °F 81% 30.04 in 10.0 mi NNW 5.8 mph - N/A   Mostly Cloudy
6:51 PM 71.1 °F 66.0 °F 84% 30.03 in 10.0 mi WNW 3.5 mph - N/A   Overcast
7:51 PM 70.0 °F 64.0 °F 81% 30.06 in 10.0 mi WNW 4.6 mph - N/A   Mostly Cloudy
8:51 PM 68.0 °F 63.0 °F 84% 30.08 in 10.0 mi WNW 8.1 mph - N/A   Scattered Clouds
9:51 PM 66.0 °F 61.0 °F 84% 30.10 in 10.0 mi North 6.9 mph - N/A   Overcast
10:11 PM 64.0 °F 61.0 °F 90% 30.11 in 10.0 mi Calm Calm - N/A   Scattered Clouds
10:33 PM 64.0 °F 61.0 °F 90% 30.12 in 10.0 mi Calm Calm - N/A   Mostly Cloudy
10:51 PM 63.0 °F 60.1 °F 90% 30.11 in 10.0 mi NNE 3.5 mph - N/A   Overcast
11:17 PM 63.0 °F 59.0 °F 87% 30.11 in 10.0 mi NNE 4.6 mph - N/A   Overcast
11:46 PM 62.6 °F 57.2 °F 82% 30.13 in 10.0 mi North 8.1 mph - N/A   Overcast
11:51 PM 62.1 °F 57.9 °F 86% 30.12 in 10.0 mi North 9.2 mph - N/A   Overcast